Location: Newark
(36.1358°N, 115.1208°W)
Time: 15:37:41
(UTC+00:00)

Vanguard 1 Rocket - Pass Details

Date: 23 February 2020
Orbit: 650 x 4227 km, 34.3° (Epoch: 30 March)

Event Time Altitude Azimuth Distance (km) Brightness Sun altitude
Rises 08:49:46 0° 235° (SW) 6,098 - -60.9°
Reaches altitude 10° 08:54:45 10° 230° (SW) 4,482 - -60.4°
Maximum altitude 09:04:47 45° 163° (SSE) 1,639 - -59.3°
Drops below altitude 10° 09:10:27 10° 91° (E) 2,558 - -58.6°
Sets 09:12:33 0° 84° (E) 3,297 - -58.3°
